BEIDOU 12               
1 38250U 12018A   19266.98370160 -.00000065  00000-0  10000-3 0  9994
2 38250  56.6680  26.5305 0022251 232.9747  98.6854  1.86232985 50502
BEIDOU 13               
1 38251U 12018B   19266.37549362 -.00000064  00000-0  10000-3 0  9999
2 38251  56.5947  25.9335 0027200 229.5478 122.5479  1.86233530 50491
CZ-3B DEB               
1 38252U 12018C   19267.08762677  .02459720  41782-6  92910-3 0  9991
2 38252  54.9296 353.4496 3875920 331.8367  11.7562  7.92015145123008